Location: Pedholt
(56.0260°N, 10.2097°E)
Time: 04:09:01
(UTC+00:00)

Vanguard 3 - Pass Details

Date: 04 August 2021
Orbit: 510 x 3260 km, 33.3° (Epoch: 19 September)

Event Time Altitude Azimuth Distance (km) Brightness Sun altitude
Rises 23:10:17 0° 268° (W) 7,054 12.0 -16.9°
Reaches altitude 10° 23:21:21 10° 240° (WSW) 6,197 11.3 -17.0°
Maximum altitude 23:25:08 11° 229° (SW) 6,084 11.2 -17.0°
Drops below altitude 10° 23:28:52 10° 217° (SW) 6,076 11.1 -17.0°
Enters shadow 23:30:17 - 213° (SSW) 6,101 11.1 -17.0°
